Location: Joplin, MO
(37.0842°N, 94.5133°W)
Time: 19:00:37
(UTC+02:00)

Explorer 7 - Visible Passes

Search period start: 31 March 2023 00:00
Search period end: 10 April 2023 00:00
Orbit: 478 x 657 km, 50.3° (Epoch: 30 March)

Date Brightness Start Highest point End Pass type
(mag) Time Alt. Az. Time Alt. Az. Time Alt. Az.
31 Mar 8.6 03:33:52 10° NNW 03:37:07 21° NNE 03:39:42 12° ENE visible
31 Mar 8.8 05:13:43 10° NW 05:15:43 27° NW 05:15:43 27° NW visible
01 Apr 8.3 03:33:50 10° NW 03:37:26 26° NNE 03:39:55 15° ENE visible
01 Apr 8.7 05:13:51 10° WNW 05:15:56 28° WNW 05:15:56 28° WNW visible
02 Apr 7.8 03:33:47 10° NW 03:37:42 34° NNE 03:40:11 18° E visible
02 Apr 8.8 05:14:06 10° WNW 05:16:12 25° W 05:16:12 25° W visible
03 Apr 7.3 03:33:44 10° NW 03:37:53 47° NNE 03:40:30 19° E visible
03 Apr 9.1 05:14:31 10° WNW 05:16:31 20° WSW 05:16:31 20° WSW visible
04 Apr 6.8 03:33:43 10° NW 03:37:59 71° NE 03:40:52 18° ESE visible
04 Apr 9.4 05:15:21 10° W 05:16:54 14° WSW 05:16:54 14° WSW visible
05 Apr 6.9 03:33:44 10° NW 03:38:01 76° SW 03:41:18 15° SE visible
06 Apr 7.6 03:33:51 10° WNW 03:37:58 47° SW 03:41:49 10° SSE visible
07 Apr 8.5 03:34:05 10° WNW 03:37:50 30° SW 03:41:23 10° SSE visible
08 Apr 9.2 03:34:35 10° W 03:37:38 19° SW 03:40:33 10° S visible
09 Apr 9.6 03:35:43 10° WSW 03:37:21 12° SW 03:38:57 10° SSW visible
